Weather History for Rose Spit, BC

Change the Weather History Date:

Tuesday, January 1, 2013

  Actual Average Record
Temperature  
Mean Temperature 40 °F -  
Max Temperature 44 °F - - ()
Min Temperature 35 °F - - ()
Degree Days  
Heating Degree Days 26    
Moisture  
Dew Point 40 °F    
Average Humidity 89    
Maximum Humidity 93    
Minimum Humidity 83    
Precipitation  
Precipitation 0.08 in - - ()
Sea Level Pressure  
Sea Level Pressure 30.14 in    
Wind  
Wind Speed 26 mph ()    
Max Wind Speed 41 mph    
Max Gust Speed 51 mph    
T = Trace of Precipitation, MM = Missing Value Source: Averaged Metar Reports

Daily Weather History Graph

Daily Weather History Graph

Search for Another Location

Airport:

Trip Planner

Search our weather history database for the weather conditions in past years. The results will help you decide how hot, cold, wet, or windy it might be!

Date:

Astronomy

Jan. 01, 2013 Rise Set
Actual Time 9:06 AM PST 4:34 PM PST
Civil Twilight 8:22 AM PST 5:18 PM PST
Nautical Twilight 7:36 AM PST 6:04 PM PST
Astronomical Twilight 6:53 AM PST 6:47 PM PST
Moon 10:00 PM PST (1/1) 10:38 AM PST (1/1)
Length of Visible Light 8h 55m
Length of Day
7h 28m
Waning Gibbous, 82% of the Moon is Illuminated
Jan 1
Waning Gibbous
Jan 4
Last Quarter
Jan 11
New
Jan 18
First Quarter
Jan 26
Full

Hourly Weather History & Observations

Time (PST) Temp. Windchill Dew Point Humidity Pressure Visibility Wind Dir Wind Speed Gust Speed Precip Events Conditions
12:00 AM 42.3 °F 33.3 °F 39.0 °F 88% 30.31 in - SE 20.7 mph - N/A   Unknown
1:00 AM 42.8 °F 33.3 °F 39.9 °F 90% 30.31 in - SE 24.2 mph - N/A   Unknown
2:00 AM 43.0 °F 34.5 °F 40.3 °F 90% 30.32 in - SE 19.6 mph - N/A   Unknown
3:00 AM 43.2 °F 34.5 °F 40.1 °F 89% 30.31 in - SE 20.7 mph - N/A   Unknown
4:00 AM 43 °F - 40 °F 85% 30.30 in - SE 21.9 mph - -  
4:00 AM 43.0 °F 34.0 °F 39.9 °F 89% 30.30 in - SE 21.9 mph - N/A   Unknown
5:00 AM 43.0 °F 33.1 °F 39.6 °F 88% 30.28 in - SE 26.5 mph - N/A   Unknown
6:00 AM 42.8 °F 32.9 °F 39.4 °F 88% 30.27 in - SE 26.5 mph - N/A   Unknown
7:00 AM 42.6 °F 33.5 °F 39.6 °F 89% 30.25 in - SE 21.9 mph 27.6 mph N/A   Unknown
8:00 AM 42.3 °F 31.8 °F 39.0 °F 88% 30.21 in - SE 28.8 mph - N/A   Unknown
9:00 AM 42.1 °F 31.3 °F 38.7 °F 88% 30.20 in - SE 29.9 mph - N/A   Unknown
10:00 AM 42 °F - 38 °F 83% 30.19 in - SE 29.9 mph - -  
10:00 AM 41.9 °F 31.1 °F 38.5 °F 88% 30.19 in - SE 29.9 mph 36.8 mph N/A   Unknown
11:00 AM 42.3 °F 29.9 °F 38.8 °F 88% 30.13 in - SE 41.4 mph 48.3 mph N/A   Unknown
12:00 PM 42.3 °F 29.9 °F 38.8 °F 88% 30.11 in - SE 41.4 mph 50.6 mph N/A   Unknown
1:00 PM 42.8 °F 31.0 °F 39.6 °F 88% 30.10 in - SE 39.1 mph 46.0 mph N/A   Unknown
2:00 PM 43.0 °F 31.2 °F 39.7 °F 88% 30.08 in - SE 39.1 mph - N/A   Unknown
3:00 PM 43.0 °F 31.2 °F 39.9 °F 89% 30.06 in - SE 39.1 mph 46.0 mph N/A   Unknown
4:00 PM 43 °F - 40 °F 86% 30.04 in - SE 36.8 mph - -  
4:00 PM 42.8 °F 31.3 °F 40.3 °F 91% 30.04 in - SE 36.8 mph 44.9 mph N/A   Unknown
5:00 PM 43.2 °F 31.5 °F 41.0 °F 92% 30.04 in - SE 39.1 mph 49.5 mph N/A   Unknown
6:00 PM 43.2 °F 31.8 °F 41.0 °F 92% 30.02 in - SE 36.8 mph 46.0 mph N/A   Unknown
7:00 PM 43.0 °F 31.1 °F 41.0 °F 93% 29.99 in - SE 40.3 mph 47.2 mph N/A   Unknown
8:00 PM 44.6 °F 33.8 °F 41.4 °F 88% 29.99 in - SSE 36.8 mph 48.3 mph N/A   Unknown
9:00 PM 43.3 °F 32.7 °F 41.4 °F 93% 29.97 in - SSE 32.2 mph 42.6 mph 0.05 in   Unknown
10:00 PM 44 °F - 42 °F 88% 29.97 in - SSE 38.0 mph - -  
10:00 PM 44.1 °F 32.9 °F 41.5 °F 91% 29.97 in - SSE 38.0 mph 48.3 mph 0.04 in   Unknown
11:00 PM 44.1 °F 33.5 °F 42.3 °F 93% 29.95 in - SSE 33.4 mph 40.3 mph 0.12 in   Unknown